Prestonsburg, KY

10:57 PM EST on December 12, 2017 (GMT -0500)
Prestonsburg

Weather History for KK22 - May, 2013

Change the Weather History Date:

Tuesday, May 21, 2013

  Actual Average (KJKL) Record (KJKL)
Temperature  
Mean Temperature 75 °F -  
Max Temperature 86 °F 72 °F 86 °F (2013)
Min Temperature 64 °F 53 °F 40 °F (2002)
Cooling Degree Days 10    
Growing Degree Days 25 (Base 50)    
Moisture  
Dew Point 66 °F    
Average Humidity 79    
Maximum Humidity 95    
Minimum Humidity 51    
Precipitation  
Precipitation 0.00 in - - ()
Sea Level Pressure  
Sea Level Pressure 29.98 in    
Wind  
Wind Speed 4 mph (SSW)    
Max Wind Speed 20 mph    
Max Gust Speed 41 mph    
Visibility 10 miles    
Events Rain    
Averages and records for this station are not official NWS values.
T = Trace of Precipitation, MM = Missing Value Source: NWS Daily Summary

Daily Weather History Graph

Daily Weather History Graph

Search for Another Location

Airport or City:

Trip Planner

Search our weather history database for the weather conditions in past years. The results will help you decide how hot, cold, wet, or windy it might be!

Date:

Astronomy

May. 21, 2013 Rise Set
Actual Time 6:16 AM EDT 8:38 PM EDT
Civil Twilight 5:46 AM EDT 9:08 PM EDT
Nautical Twilight 5:09 AM EDT 9:45 PM EDT
Astronomical Twilight 4:28 AM EDT 10:26 PM EDT
Moon 4:54 PM EDT (5/21) 3:39 AM EDT (5/21)
Length of Visible Light 15h 22m
Length of Day
14h 22m
Waxing Gibbous, 84% of the Moon is Illuminated
May 21
Waxing Gibbous
May 25
Full
May 31
Last Quarter
Jun 8
New
Jun 16
First Quarter

Hourly Weather History & Observations

Time (EDT) Temp. Heat Index Dew Point Humidity Pressure Visibility Wind Dir Wind Speed Gust Speed Precip Events Conditions
12:15 AM 71.4 °F - 67.5 °F 87% 29.99 in 10.0 mi South 5.8 mph - N/A   Clear
12:35 AM 71.2 °F - 67.5 °F 88% 29.99 in 10.0 mi South 5.8 mph - N/A   Clear
12:55 AM 70.7 °F - 67.3 °F 89% 30.00 in 10.0 mi South 4.6 mph - N/A   Clear
1:35 AM 69.1 °F - 66.7 °F 92% 29.99 in 10.0 mi SW 4.6 mph - N/A   Clear
1:55 AM 69.4 °F - 66.7 °F 91% 29.99 in 10.0 mi Calm Calm - N/A   Clear
2:15 AM 69.1 °F - 66.7 °F 92% 29.99 in 10.0 mi Calm Calm - N/A   Clear
2:35 AM 68.9 °F - 66.6 °F 92% 29.99 in 10.0 mi Calm Calm - N/A   Clear
2:55 AM 68.2 °F - 66.2 °F 93% 29.99 in 10.0 mi Calm Calm - N/A   Clear
3:15 AM 68.4 °F - 66.4 °F 93% 29.99 in 10.0 mi South 3.5 mph - N/A   Clear
3:35 AM 68.0 °F - 66.0 °F 93% 30.00 in 10.0 mi Calm Calm - N/A   Clear
3:55 AM 67.6 °F - 65.8 °F 94% 29.99 in 10.0 mi South 3.5 mph - N/A   Clear
4:15 AM 67.5 °F - 65.3 °F 93% 29.99 in 10.0 mi Calm Calm - N/A   Clear
4:35 AM 67.3 °F - 65.1 °F 93% 29.99 in 10.0 mi SSW 3.5 mph - N/A   Clear
4:55 AM 67.1 °F - 65.5 °F 95% 29.99 in 10.0 mi Calm Calm - N/A   Clear
5:15 AM 66.6 °F - 64.6 °F 93% 29.99 in 10.0 mi Calm Calm - N/A   Clear
5:35 AM 66.2 °F - 64.4 °F 94% 29.99 in 10.0 mi Calm Calm - N/A   Clear
5:55 AM 65.8 °F - 63.9 °F 93% 30.00 in 10.0 mi Calm Calm - N/A   Clear
6:15 AM 67.3 °F - 64.0 °F 89% 30.00 in 10.0 mi South 3.5 mph - N/A   Clear
6:35 AM 67.3 °F - 64.0 °F 89% 30.01 in 10.0 mi Calm Calm - N/A   Clear
6:55 AM 66.9 °F - 64.0 °F 90% 30.02 in 10.0 mi Calm Calm - N/A   Clear
7:15 AM 67.1 °F - 64.4 °F 91% 30.02 in 7.0 mi Calm Calm - N/A   Clear
7:35 AM 68.2 °F - 64.8 °F 89% 30.02 in 10.0 mi South 3.5 mph - N/A   Clear
7:55 AM 70.0 °F - 65.1 °F 85% 30.02 in 3.0 mi South 4.6 mph - N/A   Haze
8:15 AM 71.1 °F - 65.7 °F 83% 30.03 in 7.0 mi SSW 5.8 mph - N/A   Scattered Clouds
8:35 AM 71.2 °F - 65.7 °F 82% 30.04 in 10.0 mi SSW 3.5 mph - N/A   Clear
8:55 AM 71.6 °F - 65.7 °F 81% 30.05 in 10.0 mi SSW 3.5 mph - N/A   Mostly Cloudy
9:15 AM 72.5 °F - 66.0 °F 80% 30.04 in 10.0 mi South 6.9 mph - N/A   Scattered Clouds
9:35 AM 74.1 °F - 66.4 °F 77% 30.04 in 10.0 mi SSW 4.6 mph - N/A   Clear
9:55 AM 74.7 °F - 66.2 °F 75% 30.04 in 10.0 mi SW 5.8 mph - N/A   Clear
10:15 AM 75.6 °F - 67.1 °F 75% 30.04 in 10.0 mi SSW 4.6 mph - N/A   Clear
10:35 AM 77.2 °F - 67.6 °F 72% 30.04 in 10.0 mi WSW 4.6 mph - N/A   Scattered Clouds
10:55 AM 76.6 °F - 67.3 °F 73% 30.04 in 10.0 mi West 4.6 mph - N/A   Mostly Cloudy
11:15 AM 78.6 °F - 67.8 °F 69% 30.04 in 10.0 mi SW 3.5 mph - N/A   Scattered Clouds
11:35 AM 79.3 °F - 68.4 °F 69% 30.03 in 10.0 mi West 9.2 mph - N/A   Scattered Clouds
11:55 AM 79.0 °F - 68.2 °F 69% 30.03 in 10.0 mi West 5.8 mph - N/A   Mostly Cloudy
12:15 PM 80.6 °F 83.5 °F 68.9 °F 67% 30.02 in 10.0 mi West 6.9 mph - N/A   Mostly Cloudy
12:35 PM 80.1 °F 82.9 °F 68.9 °F 69% 30.02 in 10.0 mi WSW 4.6 mph - N/A   Mostly Cloudy
12:55 PM 80.4 °F 83.2 °F 68.4 °F 67% 30.01 in 10.0 mi Calm Calm - N/A   Mostly Cloudy
1:15 PM 82.2 °F 85.5 °F 68.7 °F 64% 29.99 in 10.0 mi SSW 4.6 mph - N/A   Mostly Cloudy
1:35 PM 82.6 °F 85.9 °F 68.7 °F 63% 29.98 in 10.0 mi SSE 6.9 mph - N/A   Scattered Clouds
1:55 PM 84.0 °F 87.8 °F 69.1 °F 61% 29.98 in 10.0 mi SSW 4.6 mph - N/A   Scattered Clouds
2:15 PM 84.6 °F 87.9 °F 68.5 °F 58% 29.97 in 10.0 mi SSW 4.6 mph - N/A   Mostly Cloudy
2:35 PM 84.6 °F 87.6 °F 68.0 °F 57% 29.97 in 10.0 mi WSW 5.8 mph - N/A   Mostly Cloudy
2:55 PM 83.7 °F 86.7 °F 68.0 °F 59% 29.97 in 10.0 mi South 5.8 mph - N/A   Mostly Cloudy
3:15 PM 85.6 °F 88.5 °F 67.5 °F 54% 29.94 in 10.0 mi South 6.9 mph - N/A   Mostly Cloudy
3:35 PM 86.2 °F 89.1 °F 67.5 °F 53% 29.94 in 10.0 mi SSE 5.8 mph - N/A   Scattered Clouds
3:55 PM 86.7 °F 90.6 °F 68.5 °F 55% 29.93 in 10.0 mi SW 8.1 mph - N/A   Scattered Clouds
4:15 PM 86.4 °F 88.7 °F 66.4 °F 51% 29.93 in 10.0 mi SSW 6.9 mph - N/A   Scattered Clouds
4:35 PM 85.8 °F 88.8 °F 67.5 °F 54% 29.92 in 10.0 mi SW 5.8 mph - N/A   Clear
4:55 PM 85.6 °F 88.2 °F 66.9 °F 53% 29.92 in 10.0 mi SSE 5.8 mph - N/A   Mostly Cloudy
5:15 PM 85.3 °F 87.6 °F 66.6 °F 53% 29.92 in 10.0 mi SW 4.6 mph - N/A   Mostly Cloudy
5:35 PM 85.1 °F 87.4 °F 66.4 °F 53% 29.91 in 10.0 mi SW 3.5 mph - N/A   Clear
5:55 PM 83.8 °F 87.0 °F 68.2 °F 59% 29.91 in 10.0 mi Calm Calm - N/A   Scattered Clouds
6:15 PM 83.7 °F 86.7 °F 68.2 °F 59% 29.90 in 10.0 mi Calm Calm - N/A   Scattered Clouds
6:35 PM 83.7 °F 86.7 °F 68.2 °F 59% 29.91 in 10.0 mi Calm Calm - N/A   Clear
6:55 PM 82.0 °F 85.5 °F 69.4 °F 65% 29.91 in 10.0 mi WSW 8.1 mph - N/A   Scattered Clouds
7:15 PM 68.4 °F - 63.5 °F 84% 29.98 in 4.0 mi West 19.6 mph 41.4 mph N/A Rain Heavy Rain
7:35 PM 65.5 °F - 63.5 °F 93% 29.97 in 5.0 mi West 10.4 mph 21.9 mph N/A Rain Rain
7:55 PM 65.7 °F - 63.5 °F 93% 29.98 in 10.0 mi WSW 5.8 mph - N/A Rain Light Rain
8:15 PM 66.0 °F - 63.7 °F 92% 29.98 in 10.0 mi South 4.6 mph - N/A Rain Light Rain
8:35 PM 65.7 °F - 63.5 °F 93% 29.97 in 10.0 mi SE 5.8 mph - N/A Rain Light Rain
8:55 PM 65.3 °F - 63.5 °F 94% 29.95 in 10.0 mi SE 6.9 mph - N/A   Scattered Clouds
9:15 PM 64.9 °F - 63.1 °F 94% 29.94 in 10.0 mi SE 4.6 mph - N/A Rain Light Rain
9:35 PM 64.6 °F - 63.0 °F 94% 29.94 in 10.0 mi SE 4.6 mph - N/A   Overcast
9:55 PM 64.9 °F - 62.6 °F 92% 29.95 in 10.0 mi Calm Calm - N/A   Overcast
10:15 PM 65.3 °F - 62.8 °F 92% 29.96 in 10.0 mi South 6.9 mph - N/A   Mostly Cloudy
10:35 PM 64.8 °F - 62.6 °F 93% 29.95 in 10.0 mi SSE 6.9 mph - N/A   Mostly Cloudy
10:55 PM 65.5 °F - 62.8 °F 91% 29.97 in 10.0 mi South 8.1 mph - N/A   Scattered Clouds
11:15 PM 65.3 °F - 62.1 °F 89% 29.97 in 10.0 mi SSE 4.6 mph - N/A   Clear
11:35 PM 65.3 °F - 62.1 °F 89% 29.97 in 10.0 mi SSE 4.6 mph - N/A   Clear
11:55 PM 64.8 °F - 61.9 °F 90% 29.97 in 10.0 mi SSE 3.5 mph - N/A   Clear